CAPE
0 0 0 0 0 0 0 0 0 0 0 0 0 0 0 0 0 0 0 0 0 0 0 0 0 9 15 1 14 0 0 0 0 0 1 0 0 0 0 0 0 0 0
0 0 0 0 0 0 0 0 0 0 0 0 0 0 0 0 0 0 0 0 0 0 0 0 0 7 22 7 1 0 0 1 0 0 3 1 0 0 0 0 0 0 0
0 0 0 0 0 0 0 0 0 0 0 0 0 0 0 0 0 0 0 0 0 0 0 0 0 0 38 20 7 1 0 0 0 1 0 0 0 0 0 0 0 0 0
0 0 0 0 0 0 0 0 0 0 0 0 0 0 0 0 0 0 0 0 0 0 0 1 7 0 1 12 6 0 0 0 0 0 1 0 0 0 1 0 0 0 0
0 0 0 0 0 0 0 0 0 0 0 0 0 0 0 0 0 0 1 0 0 0 0 0 4 7 11 36 25 9 1 0 0 0 0 0 0 0 0 0 0 0 0
0 0 0 0 0 0 0 0 0 0 0 0 0 0 0 0 0 0 0 0 4 0 0 4 8 26 37 33 21 6 3 7 0 0 0 0 0 0 0 0 0 0 1
0 0 0 0 0 0 0 0 0 0 0 0 0 0 0 0 0 0 0 0 2 0 0 0 1 11 30 42 32 25 12 16 0 0 0 0 0 0 0 0 0 0 1
0 0 0 0 0 0 0 0 0 0 0 0 0 0 0 0 0 2 0 0 0 3 0 0 1 7 19 26 36 39 28 30 20 0 0 0 0 0 0 0 0 0 0
0 0 0 0 0 0 0 0 0 0 0 0 0 0 0 0 0 0 1 2 4 0 1 1 2 3 26 27 32 38 25 15 20 3 0 0 0 0 0 0 0 0 0
0 0 0 0 0 0 0 0 0 0 0 0 0 0 0 0 0 0 0 1 1 1 4 4 6 3 22 35 43 35 37 17 5 6 0 0 0 0 0 0 0 0 0
0 0 0 0 0 0 0 0 0 0 0 0 0 0 0 0 0 0 0 0 2 5 5 6 5 4 18 38 53 46 40 31 10 2 1 0 0 0 0 0 0 0 0
0 0 0 0 0 0 0 0 0 0 0 0 0 0 0 0 0 0 0 0 2 4 3 6 5 29 1 17 37 28 9 11 1 1 0 0 0 0 0 0 0 0 0
0 0 0 0 0 0 0 0 0 0 0 0 0 0 0 0 0 0 0 0 2 4 3 6 6 4 0 11 3 1 0 3 6 0 0 0 0 0 0 0 0 0 0
0 0 0 0 0 0 0 0 0 0 0 0 0 0 0 0 0 0 0 0 4 6 3 3 2 4 0 1 0 3 0 1 2 0 0 0 0 0 0 0 0 0 0
0 0 0 0 0 0 0 0 0 0 0 0 0 0 0 0 0 0 0 0 3 5 6 4 3 7 0 0 0 0 0 0 0 0 0 0 0 0 0 0 0 0 0
0 0 0 0 0 0 0 0 0 0 0 0 0 0 0 0 0 0 0 2 3 6 6 3 3 2 0 0 0 0 0 1 0 0 0 0 0 0 0 0 0 0 0
0 0 0 0 0 0 0 0 0 0 0 0 0 0 0 0 0 0 0 4 3 8 6 3 1 1 0 0 0 0 0 0 0 0 0 0 0 0 0 2 1 1 0
0 0 0 0 0 0 0 0 0 0 0 0 0 0 0 0 0 0 0 4 4 6 7 4 1 1 0 0 1 1 0 0 0 0 0 0 0 0 0 0 0 0 0
0 0 0 0 0 0 0 0 0 0 0 0 0 0 0 0 0 0 3 6 5 5 5 8 1 0 0 0 2 0 0 0 0 0 0 0 0 2 0 0 0 0 0
0 0 0 0 0 0 0 0 0 0 0 0 0 0 0 0 0 0 4 5 5 6 9 8 0 1 0 3 4 0 0 0 0 0 0 1 0 5 1 0 0 0 0
0 0 0 0 0 0 0 0 0 0 0 0 0 0 0 0 0 0 5 3 4 7 6 0 0 0 0 2 6 3 0 0 0 0 1 1 11 10 2 0 0 0 0
0 0 0 0 0 0 0 0 0 0 0 0 0 0 0 0 0 0 5 2 5 3 2 0 0 0 0 5 9 8 2 4 0 0 1 8 14 9 4 1 3 0 0
0 0 0 0 0 0 0 0 0 0 0 0 0 0 0 0 0 1 1 1 3 3 2 3 2 1 3 4 16 21 14 13 1 0 7 15 18 17 11 11 3 0 0
0 0 0 0 0 0 0 0 0 0 0 0 0 0 0 0 0 5 6 4 3 3 4 1 0 1 1 2 5 5 7 17 5 11 5 7 4 3 2 1 0 0 0
0 0 0 1 0 0 0 0 0 3 0 0 0 0 0 0 0 2 1 4 3 4 1 2 1 0 0 3 6 4 1 0 4 1 0 0 0 0 0 0 0 0 0
0 0 0 0 0 0 0 0 1 5 5 0 0 0 0 0 0 0 0 4 7 7 8 6 2 4 9 14 16 16 18 13 3 0 0 0 0 0 0 0 0 0 0
CIN
-0 -0 -0 -0 -0 -0 -0 -0 -0 -0 -0 -0 -0 -0 -0 -0 -0 -0 -0 -0 -0 -0 -0 -0 -0 -53 -38 -69 -28 -2 -0 -0 -0 -0 -0 -0 -0 -0 -0 -0 -0 -98 -0
-0 -0 -0 -0 -0 -0 -0 -0 -0 -0 -0 -0 -0 -0 -0 -0 -0 -0 -0 -0 -0 -0 -0 -0 -0 -72 -42 -53 -20 -0 -0 -0 -0 -0 -0 -0 -0 -0 -0 -0 -0 -0 -0
-0 -0 -0 -0 -0 -0 -0 -0 -0 -0 -0 -0 -0 -0 -0 -0 -0 -0 -0 -0 -0 -0 -0 -0 -0 -0 -49 -84 -94 -13 -0 -0 -0 -0 -0 -0 -0 -0 -0 -0 -0 -0 -0
-0 -0 -0 -0 -0 -0 -0 -0 -0 -0 -0 -0 -0 -0 -0 -0 -0 -0 -0 -0 -0 -0 -0 -22 -58 -0 -19 -90 -90 -7 -0 -0 -0 -0 -0 -0 -0 -0 -0 -0 -0 -0 -0
-0 -0 -0 -0 -0 -0 -0 -0 -0 -0 -0 -0 -0 -0 -0 -0 -0 -0 -9 -1 -0 -0 -0 -0 -35 -34 -28 -63 -79 -43 -0 -0 -1 -0 -0 -0 -0 -0 -0 -0 -0 -0 -0
-0 -0 -0 -0 -0 -0 -0 -0 -0 -0 -0 -0 -0 -0 -0 -0 -0 -0 -0 -0 -6 -0 -0 -44 -45 -36 -24 -32 -50 -72 -45 -13 -13 -0 -0 -0 -0 -0 -0 -0 -0 -0 -0
-0 -0 -0 -0 -0 -0 -0 -0 -0 -0 -0 -0 -0 -0 -0 -0 -0 -1 -0 -0 -0 -1 -0 -0 -53 -30 -30 -22 -23 -32 -46 -47 -11 -0 -0 -0 -0 -0 -0 -0 -0 -0 -0
-0 -0 -0 -0 -0 -0 -0 -0 -0 -0 -0 -0 -0 -0 -0 -0 -0 -7 -0 -0 -0 -0 -1 -0 -4 -38 -27 -25 -28 -8 -13 -31 -28 -0 -5 -0 -0 -0 -0 -0 -0 -0 -0
-0 -0 -0 -0 -0 -0 -0 -0 -0 -0 -0 -0 -0 -0 -0 -0 -0 -0 -14 -2 -2 -0 -0 -0 -0 -40 -22 -22 -20 -9 -16 -29 -49 -50 -0 -8 -0 -0 -0 -0 -0 -0 -0
-0 -0 -0 -0 -0 -0 -0 -0 -0 -0 -0 -0 -0 -0 -0 -0 -0 -0 -0 -0 -1 -1 -0 -0 -0 -0 -19 -32 -23 -16 -21 -29 -50 -71 -0 -0 -0 -0 -0 -0 -0 -0 -0
-0 -0 -0 -0 -0 -0 -0 -0 -0 -0 -0 -0 -0 -0 -0 -0 -0 -0 -0 -0 -0 -0 -0 -0 -0 -0 -16 -20 -16 -22 -28 -38 -50 -62 -75 -0 -0 -0 -0 -0 -0 -0 -0
-0 -0 -0 -0 -0 -0 -0 -0 -0 -0 -0 -0 -0 -0 -0 -0 -0 -0 -0 -0 -0 -0 -0 -0 -0 -20 -28 -24 -10 -17 -51 -45 -62 -93 -0 -0 -0 -0 -0 -0 -0 -0 -0
-0 -0 -0 -0 -0 -0 -0 -0 -0 -0 -0 -0 -0 -0 -0 -0 -0 -0 -0 -0 -0 -0 -0 -0 -0 -2 -1 -16 -38 -4 -9 -54 -72 -0 -3 -17 -0 -0 -0 -0 -0 -0 -0
-0 -0 -0 -0 -0 -0 -0 -0 -0 -0 -0 -0 -0 -0 -0 -0 -0 -0 -0 -0 -0 -0 -0 -0 -0 -3 -13 -14 -11 -20 -23 -13 -41 -7 -13 -0 -0 -0 -0 -0 -0 -0 -0
-0 -0 -0 -0 -0 -0 -0 -0 -0 -0 -0 -0 -0 -0 -0 -0 -0 -0 -0 -0 -0 -0 -0 -0 -0 -0 -1 -8 -0 -0 -0 -0 -0 -0 -0 -0 -0 -0 -0 -0 -0 -0 -0
-0 -0 -0 -0 -0 -0 -0 -0 -0 -0 -0 -0 -0 -0 -0 -0 -0 -0 -0 -1 -0 -0 -0 -0 -0 -0 -0 -0 -0 -0 -0 -0 -0 -0 -0 -0 -0 -0 -0 -0 -0 -0 -0
-0 -0 -0 -0 -0 -0 -0 -0 -0 -0 -0 -0 -0 -0 -0 -0 -0 -0 -0 -1 -0 -0 -0 -0 -0 -0 -0 -0 -0 -0 -0 -0 -0 -0 -0 -0 -0 -0 -0 -0 -0 -0 -0
-0 -0 -0 -0 -0 -0 -0 -0 -0 -0 -0 -0 -0 -0 -0 -0 -0 -0 -0 -1 -0 -0 -0 -0 -0 -0 -0 -0 -0 -0 -0 -0 -0 -0 -0 -0 -0 -0 -0 -0 -0 -0 -0
-0 -0 -0 -0 -0 -0 -0 -0 -0 -0 -0 -0 -0 -0 -0 -0 -0 -0 -1 -0 -0 -0 -0 -0 -0 -0 -0 -0 -0 -0 -0 -0 -0 -0 -0 -0 -0 -0 -0 -0 -0 -0 -0
-0 -0 -0 -0 -0 -0 -0 -0 -0 -0 -0 -0 -0 -0 -0 -0 -0 -0 -0 -0 -0 -0 -0 -0 -0 -0 -0 -0 -0 -0 -0 -0 -0 -0 -0 -0 -0 -0 -0 -0 -0 -0 -0
-0 -0 -0 -0 -0 -0 -0 -0 -0 -0 -0 -0 -0 -0 -0 -0 -0 -0 -0 -0 -0 -0 -0 -0 -0 -0 -0 -0 -0 -0 -0 -0 -0 -0 -0 -0 -0 -0 -0 -0 -0 -0 -0
-0 -0 -0 -0 -0 -0 -0 -0 -0 -0 -0 -0 -0 -0 -0 -0 -0 -0 -0 -0 -0 -0 -0 -0 -0 -0 -0 -0 -0 -0 -0 -0 -0 -0 -0 -0 -0 -0 -0 -0 -0 -0 -0
-0 -0 -0 -0 -0 -0 -0 -0 -0 -0 -0 -0 -0 -0 -0 -0 -0 -0 -0 -0 -0 -0 -0 -0 -0 -0 -0 -0 -0 -0 -0 -0 -0 -0 -0 -0 -0 -0 -0 -0 -0 -0 -0
-0 -0 -0 -0 -0 -0 -0 -0 -0 -0 -0 -0 -0 -0 -0 -0 -0 -0 -0 -0 -0 -0 -0 -0 -0 -0 -0 -0 -0 -0 -0 -0 -0 -0 -0 -0 -0 -0 -0 -0 -0 -0 -0
-0 -0 -0 -0 -0 -0 -0 -0 -0 -0 -0 -0 -0 -0 -0 -0 -0 -0 -0 -0 -0 -0 -0 -0 -0 -0 -0 -0 -0 -0 -0 -0 -0 -0 -0 -0 -0 -0 -0 -0 -0 -0 -0
-0 -0 -0 -0 -0 -0 -0 -0 -0 -0 -0 -0 -0 -0 -0 -0 -0 -0 -0 -0 -0 -0 -0 -0 -0 -0 -0 -0 -0 -0 -0 -0 -0 -0 -0 -0 -0 -0 -0 -0 -0 -0 -0
Wind_Speed
5 8 9 7 7 8 8 7 7 7 5 4 5 5 7 4 5 4 7 6 5 5 5 4 4 4 6 7 6 1 6 2 3 3 2 3 3 4 3 1 2 5 7
8 9 10 9 8 6 7 8 8 7 6 4 3 3 3 3 3 4 6 8 7 6 5 5 5 5 6 6 7 6 2 2 7 3 2 2 2 2 3 2 1 2 4
8 8 9 7 6 8 7 8 7 7 6 8 5 4 3 3 4 7 6 7 10 8 6 6 5 6 4 5 6 7 8 4 5 6 4 3 3 2 2 1 1 2 2
9 8 6 7 7 6 6 7 8 7 7 7 7 6 4 5 3 3 5 7 8 9 8 7 4 5 3 5 7 6 6 5 7 1 2 2 4 3 2 1 1 0 2
6 6 6 5 5 6 5 5 6 6 6 7 6 5 6 5 7 7 10 7 6 7 10 7 5 5 5 6 7 7 9 5 5 6 3 2 2 2 4 3 3 0 1
6 6 6 6 5 6 5 5 6 6 6 6 6 6 7 8 8 9 9 8 7 6 7 9 7 5 4 4 5 9 10 9 6 6 4 4 4 2 3 2 1 3 2
5 5 5 5 5 6 6 5 6 6 6 7 7 7 7 7 7 10 9 13 8 7 8 9 10 8 6 6 7 7 8 9 9 8 7 6 5 3 3 3 2 3 2
2 3 3 4 5 6 6 6 7 7 8 7 8 6 7 5 7 9 10 9 10 9 10 11 11 12 9 7 7 7 7 8 9 10 7 5 5 4 4 4 4 2 1
1 4 5 5 6 6 7 7 7 7 7 8 8 8 6 7 8 10 10 9 10 11 13 14 13 14 10 8 9 8 8 8 10 9 10 6 5 5 4 4 3 5 5
5 6 6 5 4 4 4 6 7 7 8 8 9 10 11 9 9 9 11 12 11 12 12 13 14 13 11 9 10 9 9 9 6 6 8 7 4 6 5 4 4 1 4
6 7 6 4 5 5 6 6 6 7 9 7 11 11 10 10 10 9 10 11 13 12 13 13 14 12 11 9 8 10 11 11 8 8 9 8 7 5 5 4 4 5 3
6 7 7 5 6 7 8 7 6 7 7 7 12 12 10 10 11 10 10 11 13 12 13 13 15 11 11 9 9 9 9 10 9 9 8 9 6 7 6 6 6 6 4
9 7 8 8 7 8 7 7 6 7 8 11 12 12 10 11 12 12 11 12 13 12 13 13 14 9 5 6 8 9 8 8 9 10 9 7 8 7 5 5 6 5 4
6 7 8 9 9 9 8 8 10 8 9 13 12 12 11 13 13 13 11 13 13 13 12 12 13 11 7 7 8 8 8 8 8 8 8 8 10 9 8 6 7 6 6
8 10 13 12 12 12 10 11 11 11 11 12 11 12 12 13 12 11 11 13 13 13 11 12 12 11 5 4 6 8 8 8 6 5 6 6 8 10 10 7 7 9 6
10 13 13 14 15 14 14 14 14 13 12 11 13 12 14 13 12 11 11 13 13 13 11 10 10 10 5 7 10 8 6 5 7 6 5 5 8 9 14 13 15 13 10
13 14 14 14 14 15 15 14 14 13 13 13 13 13 13 13 12 12 12 13 13 11 11 10 8 10 6 7 8 11 6 6 6 7 7 6 4 9 7 11 12 10 8
13 14 13 14 14 15 14 14 13 13 13 13 13 12 12 13 12 13 13 12 11 11 9 10 9 7 6 8 7 12 7 6 7 7 7 8 8 9 12 12 11 9 8
13 13 13 14 14 14 14 14 14 14 13 13 12 12 13 13 13 14 13 12 11 9 8 9 8 6 6 8 14 10 8 8 8 7 8 9 10 19 22 14 14 12 12
15 16 17 15 14 14 14 14 15 14 14 13 14 14 14 13 14 14 13 10 10 9 7 6 5 8 3 13 13 11 8 10 8 7 10 16 15 21 20 15 14 14 10
15 15 14 14 15 15 15 15 16 15 14 14 14 14 13 13 13 13 10 10 9 4 3 2 3 4 6 7 12 14 7 9 9 8 8 9 23 21 20 17 10 13 12
16 15 14 14 15 14 13 15 16 16 15 14 14 13 12 11 10 13 10 9 3 4 1 2 3 3 4 6 10 13 14 15 10 10 8 12 21 22 21 15 24 22 16
14 14 14 16 15 13 13 16 17 16 15 14 13 12 13 12 11 11 8 6 4 3 2 2 2 2 3 3 12 16 20 19 10 9 16 23 21 22 18 23 22 16 7
15 14 16 16 16 14 15 16 17 16 13 12 12 11 10 12 11 7 5 4 3 3 2 2 2 3 3 4 6 8 11 20 14 20 13 14 16 16 16 13 9 6 6
14 14 14 15 17 16 16 16 16 16 12 9 10 10 8 9 10 8 5 4 3 3 3 3 2 3 4 4 10 10 10 10 14 15 9 8 8 8 7 6 6 5 5
15 14 15 15 16 16 16 16 15 15 16 10 7 7 7 7 7 6 4 5 8 7 7 8 5 4 10 18 18 19 23 25 24 10 10 8 7 7 7 7 6 5 7
Wind_Direction
47 53 50 52 51 38 42 27 20 356 13 357 357 353 349 332 340 341 332 326 327 329 316 287 247 205 204 212 202 208 201 109 144 128 83 58 20 65 81 41 164 158 161
55 45 49 54 44 37 27 20 12 3 7 2 341 335 313 318 307 328 327 321 316 310 306 283 252 211 194 188 197 172 186 132 174 156 228 133 46 31 18 41 40 154 162
79 59 55 45 41 36 19 25 9 4 6 359 349 343 313 322 339 344 330 326 316 305 288 280 246 220 195 191 184 195 196 173 203 220 143 151 181 147 358 80 1 148 215
70 68 61 45 34 24 24 20 6 360 6 355 358 354 339 328 291 285 296 310 308 312 303 288 267 239 210 188 198 195 204 182 175 239 145 305 132 180 155 45 173 277 140
90 74 55 44 34 25 16 7 357 351 348 354 355 341 332 317 318 320 320 309 300 306 306 287 275 234 227 204 188 198 209 204 182 181 153 165 63 252 107 156 192 223 161
58 52 40 27 13 357 356 346 2 343 334 344 342 339 325 322 332 331 323 317 313 306 305 313 297 254 221 213 210 199 202 206 202 189 183 175 178 179 122 128 136 199 167
53 42 29 8 346 341 341 335 347 338 334 336 333 326 323 320 315 330 322 314 308 308 305 316 305 292 245 219 207 214 209 201 205 199 195 206 191 170 132 155 146 136 135
56 18 337 321 308 316 330 344 341 333 332 329 320 314 308 309 310 319 321 306 299 300 301 296 289 283 258 235 211 221 221 208 205 197 206 188 187 160 152 143 152 118 161
286 279 287 300 309 327 336 337 332 328 329 326 322 318 298 302 305 305 306 299 294 297 292 289 285 281 263 233 214 215 212 208 202 199 190 184 185 192 168 154 175 149 169
317 315 305 288 309 335 336 337 333 318 316 322 325 319 312 303 297 299 305 306 299 299 290 287 281 268 260 240 213 201 211 204 204 193 192 185 171 186 177 171 175 171 147
336 328 316 345 346 338 348 333 332 327 325 323 324 309 303 305 297 289 297 304 302 297 294 286 285 260 253 239 222 202 197 198 195 194 188 185 168 175 177 167 179 162 144
334 327 329 357 346 339 333 321 324 322 316 310 317 309 298 306 304 292 294 303 304 301 303 297 288 261 243 233 219 205 190 190 185 187 179 190 170 177 177 183 185 174 159
343 4 353 342 322 315 301 306 320 315 318 320 313 308 301 309 305 299 295 304 307 300 305 298 298 266 225 216 206 213 197 188 190 182 190 185 172 178 170 181 176 168 146
352 344 331 320 313 317 312 323 321 315 316 312 308 306 305 309 302 299 294 304 308 300 304 305 304 264 238 226 210 198 185 191 188 180 182 176 186 180 172 169 167 144 138
339 335 329 326 324 322 323 320 314 312 312 307 306 304 304 304 299 294 298 302 306 300 300 298 295 288 229 214 200 204 187 176 169 174 166 171 177 174 170 157 156 146 141
327 323 320 321 319 321 319 317 313 312 313 309 307 304 304 303 299 294 297 302 304 297 297 293 291 301 276 226 207 175 168 155 157 155 144 142 150 158 164 164 164 166 154
326 323 322 316 317 315 315 311 309 311 311 308 308 305 303 302 301 301 296 301 304 296 294 294 293 276 275 261 223 167 151 148 152 143 145 131 147 141 137 146 141 139 140
322 320 315 314 315 312 309 306 307 309 307 305 303 303 302 304 303 303 295 305 302 295 295 292 282 281 271 258 239 147 128 128 128 134 141 135 134 132 123 108 94 82 76
317 315 314 312 312 309 308 308 311 310 307 305 303 307 305 302 303 302 299 305 299 294 290 287 278 263 263 252 143 126 117 112 107 114 117 126 121 133 132 117 109 100 90
321 320 317 317 313 311 311 311 308 307 305 305 304 302 300 296 299 298 297 303 294 291 291 290 287 260 152 129 137 132 126 118 113 105 114 124 124 135 130 118 120 109 108
311 314 315 310 309 310 312 309 307 303 301 300 299 297 295 295 294 294 299 299 294 299 314 326 8 62 103 130 147 140 132 132 126 124 125 127 131 127 119 111 111 116 120
318 320 315 311 311 314 313 307 303 302 302 300 299 298 297 294 295 293 295 296 292 271 282 26 48 54 70 128 147 142 129 133 127 125 125 127 121 119 117 111 121 122 113
316 318 312 313 312 312 313 308 302 303 301 299 298 296 296 294 293 295 295 291 267 249 214 164 115 97 93 112 141 141 131 124 114 113 116 117 119 119 117 124 125 118 111
319 317 319 314 312 315 313 307 306 305 296 291 292 294 294 298 300 298 287 273 252 226 185 146 127 111 107 126 127 120 117 111 109 115 112 111 108 111 119 110 102 98 104
315 322 315 313 311 315 313 310 311 319 301 288 289 291 291 289 293 292 283 269 250 222 178 154 142 139 125 120 124 125 124 118 119 112 102 100 102 101 98 93 91 89 94
321 317 316 313 313 315 311 311 318 323 320 293 289 289 298 292 296 293 294 266 253 234 191 159 138 106 126 133 131 124 125 126 123 112 117 114 115 117 121 115 109 101 109